When you browse on this site, cookies collect data to enhance your experience and personalize the content and advertising you see.
Visit our Privacy Policy to learn more. By continuing to use the site, you agree to this use of cookies and data.
  • In United Kingdom
  • List of Countries
  • For 7 days
  • Water Temperature
  • Weather Map
  • Weather Widgets
  • user-avatar
    Login

    Hourly Weather Mateszalka

    Today, 16 September, Monday

    Time Temperature Precipitation Wind Pressure Humidity
    00:00 +14°C° 0 mm 2 mps 755 mmHg 56%
    01:00 +13°C° 0 mm 2 mps 755 mmHg 59%
    02:00 +13°C° 0 mm 2 mps 755 mmHg 61%
    03:00 +13°C° 0 mm 2 mps 755 mmHg 63%
    04:00 +12°C° 0 mm 2 mps 754 mmHg 64%
    05:00 +14°C° 0 mm 2 mps 754 mmHg 62%
    06:00 +15°C° 0 mm 2 mps 754 mmHg 59%
    07:00 +16°C° 0 mm 2 mps 754 mmHg 56%
    08:00 +18°C° 0 mm 2 mps 754 mmHg 53%
    09:00 +20°C° 0 mm 2 mps 754 mmHg 49%
    10:00 +24°C° 0 mm 2 mps 753 mmHg 46%
    11:00 +25°C° 0 mm 3 mps 753 mmHg 44%
    12:00 +26°C° 0 mm 3 mps 752 mmHg 43%
    13:00 +28°C° 0 mm 3 mps 752 mmHg 42%
    14:00 +27°C° 0 mm 3 mps 752 mmHg 43%
    15:00 +27°C° 0 mm 3 mps 751 mmHg 45%
    16:00 +27°C° 0 mm 3 mps 751 mmHg 47%
    17:00 +25°C° 0 mm 2 mps 751 mmHg 54%
    18:00 +23°C° 0 mm 2 mps 751 mmHg 62%
    19:00 +20°C° 0 mm 1 mps 751 mmHg 69%
    20:00 +20°C° 0 mm 1 mps 750 mmHg 71%
    21:00 +18°C° 0 mm 2 mps 750 mmHg 72%
    22:00 +17°C° 0 mm 2 mps 750 mmHg 74%
    23:00 +17°C° 0 mm 2 mps 750 mmHg 75%

    Tomorrow, 17 September, Tuesday

    Time Temperature Precipitation Wind Pressure Humidity
    00:00 +17°C° 0 mm 2 mps 750 mmHg 75%
    01:00 +17°C° 0 mm 2 mps 750 mmHg 76%
    02:00 +17°C° 0.1 mm 2 mps 750 mmHg 79%
    03:00 +16°C° 0.1 mm 1 mps 749 mmHg 82%
    04:00 +16°C° 0.1 mm 1 mps 749 mmHg 85%
    05:00 +16°C° 0 mm 1 mps 749 mmHg 84%
    06:00 +18°C° 0 mm 1 mps 750 mmHg 84%
    07:00 +17°C° 0 mm 2 mps 750 mmHg 83%
    08:00 +18°C° 0 mm 2 mps 750 mmHg 77%
    09:00 +19°C° 0 mm 2 mps 750 mmHg 70%
    10:00 +20°C° 0 mm 3 mps 750 mmHg 63%
    11:00 +20°C° 0 mm 3 mps 750 mmHg 59%
    12:00 +21°C° 0 mm 3 mps 749 mmHg 54%
    13:00 +22°C° 0 mm 3 mps 749 mmHg 50%
    14:00 +22°C° 0 mm 3 mps 749 mmHg 50%
    15:00 +22°C° 0 mm 4 mps 748 mmHg 51%
    16:00 +23°C° 0 mm 5 mps 748 mmHg 51%
    17:00 +21°C° 0 mm 5 mps 748 mmHg 57%
    18:00 +20°C° 0 mm 5 mps 748 mmHg 62%
    19:00 +17°C° 0 mm 5 mps 748 mmHg 67%
    20:00 +16°C° 0 mm 5 mps 748 mmHg 68%
    21:00 +16°C° 0 mm 5 mps 748 mmHg 70%
    22:00 +15°C° 0 mm 5 mps 748 mmHg 71%
    23:00 +14°C° 0 mm 5 mps 748 mmHg 72%

    Day after tomorrow, 18 September, Wednesday

    Time Temperature Precipitation Wind Pressure Humidity
    00:00 +13°C° 0 mm 4 mps 749 mmHg 73%
    01:00 +12°C° 0 mm 3 mps 749 mmHg 74%
    02:00 +12°C° 0 mm 4 mps 749 mmHg 70%
    03:00 +12°C° 0 mm 4 mps 750 mmHg 65%
    04:00 +10°C° 0 mm 5 mps 750 mmHg 61%
    05:00 +10°C° 0 mm 5 mps 751 mmHg 56%
    06:00 +10°C° 0 mm 6 mps 752 mmHg 51%
    07:00 +10°C° 0 mm 7 mps 753 mmHg 47%
    08:00 +11°C° 0 mm 6 mps 753 mmHg 44%
    09:00 +14°C° 0 mm 6 mps 754 mmHg 42%
    10:00 +15°C° 0 mm 6 mps 754 mmHg 39%
    11:00 +15°C° 0 mm 5 mps 754 mmHg 37%
    12:00 +16°C° 0 mm 5 mps 754 mmHg 35%
    13:00 +18°C° 0 mm 4 mps 754 mmHg 33%
    14:00 +18°C° 0 mm 4 mps 754 mmHg 33%
    15:00 +17°C° 0 mm 3 mps 754 mmHg 33%
    16:00 +17°C° 0 mm 2 mps 754 mmHg 33%
    17:00 +15°C° 0 mm 2 mps 755 mmHg 39%
    18:00 +13°C° 0 mm 2 mps 755 mmHg 45%
    19:00 +10°C° 0 mm 2 mps 756 mmHg 51%
    20:00 +10°C° 0 mm 2 mps 756 mmHg 54%
    21:00 +9°C° 0 mm 2 mps 756 mmHg 57%
    22:00 +9°C° 0 mm 1 mps 756 mmHg 60%
    23:00 +9°C° 0 mm 1 mps 756 mmHg 61%

    19 September, Thursday

    Time Temperature Precipitation Wind Pressure Humidity
    00:00 +8°C° 0 mm 1 mps 756 mmHg 62%
    01:00 +8°C° 0 mm 1 mps 756 mmHg 63%
    02:00 +7°C° 0 mm 1 mps 756 mmHg 65%
    03:00 +7°C° 0 mm 1 mps 756 mmHg 68%
    04:00 +6°C° 0 mm 1 mps 756 mmHg 71%
    05:00 +7°C° 0 mm 1 mps 756 mmHg 67%
    06:00 +8°C° 0 mm 1 mps 756 mmHg 62%
    07:00 +9°C° 0 mm 1 mps 756 mmHg 58%
    08:00 +10°C° 0 mm 2 mps 756 mmHg 52%
    09:00 +12°C° 0 mm 3 mps 756 mmHg 46%
    10:00 +14°C° 0 mm 4 mps 756 mmHg 40%
    11:00 +15°C° 0 mm 4 mps 756 mmHg 38%
    12:00 +17°C° 0 mm 4 mps 756 mmHg 36%
    13:00 +17°C° 0 mm 4 mps 756 mmHg 33%
    14:00 +17°C° 0 mm 4 mps 756 mmHg 33%
    15:00 +17°C° 0 mm 4 mps 756 mmHg 33%
    16:00 +17°C° 0 mm 3 mps 756 mmHg 33%
    17:00 +14°C° 0 mm 3 mps 756 mmHg 41%
    18:00 +12°C° 0 mm 3 mps 757 mmHg 50%
    19:00 +10°C° 0 mm 3 mps 757 mmHg 58%
    20:00 +9°C° 0 mm 3 mps 757 mmHg 61%
    21:00 +9°C° 0 mm 3 mps 758 mmHg 64%
    22:00 +8°C° 0 mm 3 mps 758 mmHg 68%
    23:00 +7°C° 0 mm 3 mps 758 mmHg 69%

    20 September, Friday

    Time Temperature Precipitation Wind Pressure Humidity
    00:00 +7°C° 0 mm 3 mps 758 mmHg 70%
    01:00 +7°C° 0 mm 3 mps 758 mmHg 72%
    02:00 +5°C° 0 mm 3 mps 758 mmHg 74%
    03:00 +5°C° 0 mm 3 mps 758 mmHg 76%
    04:00 +5°C° 0 mm 3 mps 758 mmHg 78%
    05:00 +6°C° 0 mm 4 mps 759 mmHg 74%
    06:00 +6°C° 0 mm 4 mps 759 mmHg 71%
    07:00 +7°C° 0 mm 4 mps 759 mmHg 67%
    08:00 +9°C° 0 mm 5 mps 759 mmHg 57%
    09:00 +12°C° 0 mm 5 mps 759 mmHg 46%
    10:00 +14°C° 0 mm 6 mps 759 mmHg 36%
    11:00 +15°C° 0 mm 6 mps 759 mmHg 34%
    12:00 +15°C° 0 mm 5 mps 759 mmHg 32%
    13:00 +16°C° 0 mm 5 mps 759 mmHg 30%
    14:00 +15°C° 0 mm 5 mps 759 mmHg 31%
    15:00 +15°C° 0 mm 5 mps 759 mmHg 32%
    16:00 +15°C° 0 mm 5 mps 759 mmHg 33%
    17:00 +13°C° 0 mm 4 mps 759 mmHg 38%
    18:00 +11°C° 0 mm 3 mps 759 mmHg 43%
    19:00 +9°C° 0 mm 2 mps 760 mmHg 48%
    20:00 +9°C° 0 mm 2 mps 760 mmHg 51%
    21:00 +8°C° 0 mm 2 mps 760 mmHg 54%
    22:00 +8°C° 0 mm 2 mps 760 mmHg 58%
    23:00 +8°C° 0 mm 1 mps 760 mmHg 60%

    21 September, Saturday

    Time Temperature Precipitation Wind Pressure Humidity
    00:00 +8°C° 0 mm 1 mps 760 mmHg 63%
    01:00 +7°C° 0 mm 1 mps 760 mmHg 66%
    02:00 +7°C° 0 mm 1 mps 760 mmHg 68%
    03:00 +5°C° 0 mm 0 mps 760 mmHg 71%
    04:00 +5°C° 0 mm 0 mps 760 mmHg 73%
    05:00 +6°C° 0 mm 0 mps 760 mmHg 68%
    06:00 +7°C° 0 mm 0 mps 760 mmHg 64%
    07:00 +8°C° 0 mm 0 mps 760 mmHg 59%
    08:00 +11°C° 0 mm 1 mps 760 mmHg 53%
    09:00 +13°C° 0 mm 1 mps 760 mmHg 47%
    10:00 +15°C° 0 mm 1 mps 760 mmHg 41%
    11:00 +16°C° 0 mm 2 mps 759 mmHg 38%
    12:00 +17°C° 0 mm 2 mps 759 mmHg 36%
    13:00 +19°C° 0 mm 3 mps 759 mmHg 33%
    14:00 +18°C° 0 mm 3 mps 758 mmHg 34%
    15:00 +18°C° 0 mm 3 mps 758 mmHg 35%
    16:00 +18°C° 0 mm 3 mps 758 mmHg 36%
    17:00 +16°C° 0 mm 2 mps 758 mmHg 41%
    18:00 +14°C° 0 mm 1 mps 759 mmHg 46%
    19:00 +12°C° 0 mm 1 mps 759 mmHg 51%
    20:00 +11°C° 0 mm 0 mps 759 mmHg 53%
    21:00 +10°C° 0 mm 0 mps 759 mmHg 54%
    22:00 +10°C° 0 mm 0 mps 759 mmHg 56%
    23:00 +9°C° 0 mm 0 mps 759 mmHg 57%
    Show more